Regional Weather Roundup
Issued by NWS Charleston, SC

Current Version | Previous Version | Graphics & Text | Print | Product List | Glossary On
Versions: 1 2 3 4 5 6 7 8 9 10 11 12 13 14 15 16 17 18 19 20 21 22 23 24 25 26 27 28 29 30 31 32 33 34 35 36 37 38 39 40 41 42 43 44 45 46 47 48 49 50
909
ASUS42 KCHS 310413
RWRCHS

REGIONAL WEATHER ROUNDUP
NATIONAL WEATHER SERVICE CHARLESTON SC
1200 AM EDT WED AUG 31 2016

NOTE: "FAIR" INDICATES FEW OR NO CLOUDS BELOW 12,000 FEET WITH NO
SIGNIFICANT WEATHER AND/OR OBSTRUCTIONS TO VISIBILITY.

NOT ALL STATIONS ARE QUALITY CONTROLLED. USE DATA WITH CAUTION...
ESPECIALLY DEWPOINT OBSERVATIONS.

SCZ027-030-031-034>040-042>050-310500-
...SOUTHEAST SOUTH CAROLINA...

CITY           SKY/WX    TMP DP  RH WIND       PRES   REMARKS
N CHARLESTON   PTCLDY    75  71  87 CALM      30.00S
WATERFRONT PRK   N/A     82  77  84 SE8       29.98F HX  90
MOUNT PLEASANT FAIR      73  73 100 CALM      30.01S
JOHNS ISLAND   FAIR      75  73  94 CALM      30.00F
PINOPOLIS        N/A     77  73  88 CALM      29.94F
MONCKS CORNER  FAIR      72  70  94 CALM      30.01S
SUMMERVILLE    FAIR      72  72 100 CALM      30.02S
BEAUFORT MCAS  CLEAR     79  75  87 SE5       29.99F
BEAUFORT ARPT  FAIR      77  73  88 CALM      29.99S
HILTON HEAD IS MOCLDY    81  75  83 SE10G18   30.01R
WALTERBORO     CLEAR     73  73 100 CALM      30.01F
ALLENDALE      FAIR      75  73  94 CALM      30.00S

...SOUTHERN MIDLANDS AND PEE DEE...

CITY           SKY/WX    TMP DP  RH WIND       PRES   REMARKS
GEORGETOWN     FAIR      73  72  94 CALM      30.02F
KINGSTREE      FAIR      70  64  83 CALM      30.01F
ORANGEBURG     CLEAR     73  71  93 CALM      30.02S
BARNWELL       NOT AVBL
AIKEN          FAIR      73  70  88 SE5       30.06S
MANNING        FAIR      70  68  94 CALM      30.02S
COLUMBIA       PTCLDY    77  69  76 CALM      30.01S
SUMTER         MOCLDY    74  66  75 CALM      30.00S
FLORENCE       PTCLDY    76  66  71 CALM      30.02S
MYRTLE BEACH   CLOUDY    81  70  69 CALM      30.03F
N MYRTLE BEACH PTCLDY    79  76  90 CALM      30.01S

$$

GAZ063-065-086>088-099>101-113>116-118-119-134>141-150-310500-
...SOUTHEAST GEORGIA...

CITY           SKY/WX    TMP DP  RH WIND       PRES   REMARKS
SAVANNAH ARPT  PTCLDY    78  73  84 E7        29.99S
HUNTER AAF     PTCLDY    78  76  95 E9        29.97R
FORT STEWART   HVY RAIN  77  73  88 SE9G20    29.97R FOG
STATESBORO     CLEAR     75  73  93 CALM      30.00S
SYLVANIA       NOT AVBL
CLAXTON        FAIR      75  74  98 CALM      29.99F

...CSRA...CENTRAL AND FAR SOUTHEAST GEORGIA...

CITY           SKY/WX    TMP DP  RH WIND       PRES   REMARKS
THOMSON        CLEAR     75  74  96 CALM      30.07R
AUGUSTA-BUSH   CLEAR     73  72  96 CALM      30.00F
AUGUSTA-DANIEL CLEAR     78  72  81 CALM      30.02F
SWAINSBORO     FAIR      75  70  83 CALM      30.01F
VIDALIA        CLEAR     77  75  94 E5        30.00S
EASTMAN        FAIR      76  76  98 CALM      30.02S
HAZLEHURST     FAIR      78  75  90 CALM      29.97F
ALMA           PTCLDY    75  72  90 CALM      29.97S
WAYCROSS         N/A     78  75  91 NE3       29.96F
JESUP          MOCLDY    77  77 100 SE5       29.99R
BAXLEY         MOCLDY    77  77 100 NE5       29.97F
BRUNSWICK      CLOUDY    77  77 100 NE10      29.96F
SAINT SIMONS   CLOUDY    78  75  90 E15G23    29.94F

$$

SCZ027-028-034-036>038-045-046-048>050-GAZ119-141-310500-
...LAKE AND SUPPLEMENTAL COASTAL OBSERVATIONS...

STATION/POSITION TIME  TEMP    WIND        PRES    WAVE   SWELL
                       AIR SEA DIR/SP/G            HT/PER HT/PER/DIR
                 (UTC) (F)     (DEG/KT/KT) (MB)    (FT/S) (FT/S/D)
WINYAH BAY       NOT AVBL
LAKE MURRAY      0300   83     130/  4/  6 1015.9R
ACE BASIN NERRS  NOT AVBL
FORT PULASKI     0300   82 85  110/  9/ 12 1015.9F
SAPELO ISLAND    0300   76     110/  9     1015.0S

$$

ANZ835-935-AMZ111-154-330-350-352-354-370-450-454-472-310500-
...C-MAN AND BUOY OBSERVATIONS...

STATION/POSITION TIME  TEMP    WIND        PRES    WAVE   SWELL
                       AIR SEA DIR/SP/G            HT/PER HT/PER/DIR
                 (UTC) (F)     (DEG/KT/KT) (MB)    (FT/S) (FT/S/D)
BUOY 41004       0350   83 85  130/  8/ 10 1015.6S   4/10   3/110/10
BUOY 41008       0350   80 85   80/ 21/ 23 1013.8F   4/ 5   2/ 80/11
FOLLY BEACH CMAN 0400   82     130/ 10/ 11 1016.1F
CAPERS NEARSHORE 0308   82 83  130/  8/ 12 1016.0R
FRIPP NEARSHORE  0308   83 85  120/ 14/ 17 1014.9F


STATION/POSITION TIME  TEMP    WIND        PRES    WAVE   SWELL
                       AIR SEA DIR/SP/G            HT/PER HT/PER/DIR
                 (UTC) (F)     (DEG/KT/KT) (MB)    (FT/S) (FT/S/D)
5E ST. MARYS GA  0301      85                N/A     6/ 6   2/100/11
FRYING PAN BUOY  0300   83 85  110/  6/ 10 1015.9R
BUOY 41025       0350   80 84   50/  6/  8 1014.8F   6/11   5/120/11
CAPE LOOKOUT NC  0400   80      10/  7/  9 1015.1F
BUOY 41002       0350   83 83  200/ 14/ 16 1016.1F   4/11   3/ 50/11
BUOY 41010       NOT AVBL
ST AUGUSTINE FL  0400   77 83  190/  7/  7 1013.8R


$$




USA.gov is the U.S. government's official web portal to all federal, state and local government web resources and services.